map of PEE home
PEE - Airport
Location
City:  Perm, Permskiy, Russian Federation (Russia)
Near (Alt.):Bolshoye Savino
Name:Bolshoye Savino International Airport
ICAO:USPP
IATA:PEE

Details
Type:Airport (Aerodrome, Airfield)
Use:Public/Civil, Military, International (customs port of entry)
Latitude:57°54'52"N (57.914444)
Longitude:56°01'17"E (56.021389)
Elevation:404 ft (123 m)
Variation:15.59°E (WMM2015 magnetic declination)
0.10° annual change
Runways:1
Longest:10512 × 161 ft (3204 × 49 m), paved

Time
Time Zone:UTC+5 (DST+6)

Weather
METAR:USPP 170330Z 19003MPS CAVOK M07/M12 Q1034 R21/090060 NOSIG RMK QFE764
TAF:USPP 170158Z 1703/1803 17003G08MPS CAVOK= TAF UWKD 170155Z 1703/1803 16007G12MPS 9999 OVC015 TXM06/1712Z TNM10/1703Z
TEMPO 1703/1709 15010G15MPS 2000 SN BLSN OVC005
TEMPO 1709/1715 16010G15MPS 3100 -SN BLSN

Related Locations
Nearby:
Farthest:SCGC: 10688 mi / 17201 km
Base Antarctica [Unión Glaciar Airport], MA, CL

Find:

   beyond  
but within

Other Information
Maps:
NOTAMs:
Links:
Sources:

  
flag of Russian Federation (Russia)
flag of Permskiy
  

Airport Diagram

Airport diagram for PEE

Airport diagram PDF from AIP of the Russian Federation

Sectional Chart

Flight Planning
at skyvector.com

Satellite Image

Google Maps Satellite view

Yandex Maps Satellite view


 

Copyright © 2004-2017 Karl L. Swartz. All rights reserved.
The Great Circle Mapper name and logo are trademarks of the Great Circle Mapper.
All other trademarks mentioned herein belong to their respective owners.
Please see credits for attibutions and further copyright information.

  Follow gcmap on Facebook Follow gcmap on Twitter Follow gcmap on Google+ GCmap on LinkedIn

hCard Microformat

Geo Microformat